Home   Weather   Perg   Past weeks

Flag for Austria Past Weather in Perg, Upper Austria, Austria — Yesterday and Last 2 Weeks

Now
27 °F

Chilly.


Feels Like: 27 °F
Forecast: 8 / 24 °F
Wind: 1 mph from East

Location: Amstetten

Current Time: Jan 18, 2017 at 3:18:33 pm

Latest Report: Jan 18, 2017 at 2:00 pm


Visibility: N/A

Pressure: 30.63 "Hg

Humidity: 83%

Dew Point: 22 °F

Location of PergLocation

Past Weather in Perg — Graph

°F

Perg Temperature Yesterday

Maximum temperature yesterday: 28 °F (at 1:00 pm)
Minimum temperature yesterday: 24 °F (at 12:00 am)
Average temperature yesterday: 26 °F

High & Low Weather Summary for the Past Weeks

 TemperatureHumidityPressure
High41 °F (Jan 13, 10:00 am)100% (Jan 12, 7:00 pm)30.73 "Hg (Jan 12, 7:00 pm)
Low3 °F (Jan 11, 8:00 am)60% (Jan 13, 2:00 pm)29.44 "Hg (Jan 13, 4:00 am)
Average26 °F85%30.19 "Hg
* Reported Jan 3 1:00 pm — Jan 18 1:00 pm, Perg, Weather by CustomWeather, © 2017

Note: Actual official high and low records may vary slightly from our data, if they occured in-between our weather recording intervals... More about our weather records

Advertising

Perg Weather History for the Previous 24 Hours

Scroll right to see more
 ConditionsComfort  
Time TempWeatherWind HumidityBarometerVisibility
1:00 pm
Wed, Jan 18
27 °FChilly.2 mph84%30.64 "HgN/A
12:00 pm26 °FChilly.1 mph84%30.65 "HgN/A
11:00 am25 °FCold.1 mph91%30.66 "HgN/A
10:00 am24 °FCold.1 mph94%30.66 "HgN/A
9:00 am24 °FCold.1 mph95%30.64 "HgN/A
8:00 am23 °FCold.1 mph94%30.63 "HgN/A
7:00 am24 °FCold.1 mph94%30.62 "HgN/A
6:00 am24 °FCold.1 mph94%30.62 "HgN/A
5:00 am24 °FCold.1 mph93%30.61 "HgN/A
4:00 am24 °FCold.1 mph94%30.62 "HgN/A
3:00 am24 °FCold.2 mph94%30.63 "HgN/A
2:00 am24 °FCold.1 mph94%30.62 "HgN/A
1:00 am24 °FCold.1 mph94%30.61 "HgN/A
12:00 am25 °FCold.1 mph95%30.61 "HgN/A
11:00 pm
Tue, Jan 17
25 °FCold.1 mph94%30.60 "HgN/A
10:00 pm25 °FChilly.1 mph94%30.60 "HgN/A
9:00 pm25 °FChilly.2 mph94%30.59 "HgN/A
8:00 pm25 °FChilly.2 mph95%30.57 "HgN/A
7:00 pm26 °FChilly.2 mph93%30.56 "HgN/A
6:00 pm26 °FChilly.1 mph94%30.55 "HgN/A
5:00 pm26 °FChilly.1 mph92%30.53 "HgN/A
4:00 pm27 °FChilly.1 mph90%30.53 "HgN/A
3:00 pm28 °FChilly.2 mph90%30.51 "HgN/A
Weather by CustomWeather, © 2017

See weather overviewHow to use our weather pages